N140JP KORL-KTEB

Flight info

Callsign N140JP
Flight time N/A
Altitude 45000
Route TOLLZ2 TOLLZ WORMS GUANO BKENI VIYAP Q87 GEARS SWNGR JAIKE4
Aircraft C750/M-SBDE3FGHRWXY/S

Departure

Time N/A
Airport Orlando Executive Airport (KORL)

Arrival

Time 2026-05-08 19:15
Airport Teterboro Airport (KTEB)
Time Latitude Longitude Altitude Speed Heading
2026-05-08 18:33 38.09318 -77.07515 45051 ft 541 kts 18°
2026-05-08 18:33 38.15946 -77.02953 45049 ft 541 kts 19°
2026-05-08 18:34 38.22460 -76.97978 45034 ft 556 kts 29°
2026-05-08 18:34 38.28414 -76.91716 45049 ft 559 kts 32°
2026-05-08 18:35 38.34453 -76.85435 45049 ft 558 kts 30°
2026-05-08 18:35 38.40461 -76.79126 45032 ft 558 kts 32°
2026-05-08 18:36 38.46445 -76.72840 45032 ft 558 kts 31°
2026-05-08 18:36 38.52409 -76.66568 45033 ft 559 kts 31°
2026-05-08 18:37 38.58399 -76.60239 45060 ft 558 kts 31°
2026-05-08 18:37 38.64409 -76.53893 45023 ft 559 kts 32°
2026-05-08 18:38 38.70294 -76.47631 44291 ft 537 kts 31°
2026-05-08 18:38 38.73306 -76.44856 42995 ft 528 kts 22°
2026-05-08 18:38 38.76519 -76.42704 41781 ft 515 kts 12°
2026-05-08 18:39 38.79837 -76.41042 40663 ft 509 kts
2026-05-08 18:39 38.83107 -76.39456 39541 ft 509 kts
2026-05-08 18:39 38.86397 -76.37752 38348 ft 510 kts 10°
2026-05-08 18:39 38.89668 -76.36006 36924 ft 507 kts 10°
2026-05-08 18:40 38.92931 -76.34321 35532 ft 502 kts
2026-05-08 18:40 38.96166 -76.32697 34130 ft 497 kts
2026-05-08 18:40 38.99372 -76.31059 32532 ft 494 kts
2026-05-08 18:40 39.02523 -76.29404 31309 ft 484 kts 10°
2026-05-08 18:41 39.05607 -76.27793 30058 ft 473 kts 10°
2026-05-08 18:41 39.08639 -76.26247 29543 ft 460 kts
2026-05-08 18:41 39.11615 -76.24723 28932 ft 460 kts
2026-05-08 18:41 39.14522 -76.23027 28300 ft 472 kts 18°
2026-05-08 18:42 39.17223 -76.20496 27688 ft 486 kts 31°
2026-05-08 18:42 39.19718 -76.17570 27068 ft 484 kts 32°
2026-05-08 18:42 39.22172 -76.14647 26435 ft 478 kts 32°
2026-05-08 18:42 39.24622 -76.11775 25802 ft 471 kts 32°
2026-05-08 18:43 39.27050 -76.08984 25181 ft 464 kts 31°
2026-05-08 18:43 39.29588 -76.06499 24573 ft 454 kts 26°
2026-05-08 18:43 39.32153 -76.04139 23965 ft 450 kts 25°
2026-05-08 18:43 39.34683 -76.01800 23347 ft 447 kts 26°
2026-05-08 18:44 39.37179 -75.99429 22739 ft 442 kts 26°
2026-05-08 18:44 39.39648 -75.97081 22158 ft 438 kts 26°
2026-05-08 18:44 39.42100 -75.94786 21584 ft 433 kts 26°
2026-05-08 18:44 39.44523 -75.92518 21009 ft 428 kts 26°
2026-05-08 18:45 39.46898 -75.90274 20451 ft 425 kts 27°
2026-05-08 18:45 39.49272 -75.88026 19894 ft 421 kts 27°
2026-05-08 18:45 39.51634 -75.85795 19340 ft 417 kts 27°
2026-05-08 18:45 39.53965 -75.83595 18792 ft 414 kts 27°
2026-05-08 18:46 39.56280 -75.81405 18245 ft 410 kts 27°
2026-05-08 18:46 39.58574 -75.79229 17687 ft 405 kts 27°
2026-05-08 18:46 39.60842 -75.77118 17163 ft 398 kts 26°
2026-05-08 18:46 39.63095 -75.75089 16634 ft 391 kts 25°
2026-05-08 18:47 39.65311 -75.73081 16124 ft 387 kts 26°
2026-05-08 18:47 39.67496 -75.71059 15617 ft 383 kts 26°
2026-05-08 18:47 39.69653 -75.69061 15111 ft 378 kts 26°
2026-05-08 18:47 39.71791 -75.67099 14614 ft 373 kts 26°
2026-05-08 18:48 39.73871 -75.65194 14129 ft 369 kts 26°
2026-05-08 18:48 39.75958 -75.63274 13621 ft 365 kts 26°
2026-05-08 18:48 39.78020 -75.61375 13129 ft 362 kts 27°
2026-05-08 18:48 39.80070 -75.59489 13005 ft 360 kts 27°
2026-05-08 18:49 39.82122 -75.57599 13010 ft 363 kts 27°
2026-05-08 18:49 39.84186 -75.55692 12994 ft 363 kts 27°
2026-05-08 18:49 39.86243 -75.53787 12993 ft 363 kts 27°
2026-05-08 18:49 39.88300 -75.51887 12996 ft 363 kts 27°
2026-05-08 18:50 39.90362 -75.49980 12996 ft 363 kts 27°
2026-05-08 18:50 39.92416 -75.48073 12997 ft 362 kts 27°
2026-05-08 18:50 39.94471 -75.46159 12993 ft 363 kts 27°
2026-05-08 18:50 39.96527 -75.44252 12994 ft 363 kts 27°
2026-05-08 18:51 39.98597 -75.42346 13016 ft 363 kts 27°
2026-05-08 18:51 40.00674 -75.40424 12993 ft 367 kts 27°
2026-05-08 18:51 40.02746 -75.38490 12991 ft 367 kts 28°
2026-05-08 18:51 40.04823 -75.36552 12991 ft 366 kts 27°
2026-05-08 18:52 40.06872 -75.34648 12987 ft 367 kts 27°
2026-05-08 18:52 40.08970 -75.32696 12982 ft 365 kts 27°
2026-05-08 18:52 40.11010 -75.30791 12983 ft 366 kts 27°
2026-05-08 18:52 40.13098 -75.28843 12984 ft 366 kts 27°
2026-05-08 18:53 40.15168 -75.26911 12983 ft 365 kts 27°
2026-05-08 18:53 40.17244 -75.24976 12767 ft 366 kts 27°
2026-05-08 18:53 40.19265 -75.23083 12302 ft 347 kts 28°
2026-05-08 18:53 40.21165 -75.21298 11849 ft 326 kts 28°
2026-05-08 18:54 40.22966 -75.19621 11426 ft 309 kts 27°
2026-05-08 18:54 40.24689 -75.18022 11018 ft 300 kts 28°
2026-05-08 18:54 40.26378 -75.16450 10625 ft 298 kts 28°
2026-05-08 18:54 40.28069 -75.14867 10263 ft 298 kts 29°
2026-05-08 18:55 40.31442 -75.11704 9467 ft 302 kts 30°
2026-05-08 18:55 40.33037 -75.09886 9039 ft 306 kts 41°
2026-05-08 18:55 40.34472 -75.07824 8656 ft 305 kts 43°
2026-05-08 18:56 40.35896 -75.05779 8252 ft 303 kts 43°
2026-05-08 18:56 40.37329 -75.03778 7867 ft 299 kts 42°
2026-05-08 18:56 40.38760 -75.01787 7453 ft 299 kts 43°
2026-05-08 18:56 40.40174 -74.99794 7065 ft 297 kts 43°
2026-05-08 18:57 40.41552 -74.97843 6983 ft 285 kts 43°
2026-05-08 18:57 40.42444 -74.96585 6456 ft 288 kts 43°
2026-05-08 18:57 40.44307 -74.93976 5508 ft 290 kts 43°
2026-05-08 18:57 40.45216 -74.92692 5110 ft 287 kts 43°
2026-05-08 18:58 40.46569 -74.90780 4455 ft 286 kts 43°
2026-05-08 18:58 40.47949 -74.88836 4008 ft 288 kts 43°
2026-05-08 18:58 40.49274 -74.86957 4011 ft 274 kts 43°
2026-05-08 18:58 40.50577 -74.85120 4009 ft 277 kts 43°
2026-05-08 18:59 40.51885 -74.83277 4012 ft 281 kts 43°
2026-05-08 18:59 40.53221 -74.81386 4013 ft 282 kts 44°
2026-05-08 18:59 40.54556 -74.79493 4009 ft 282 kts 43°
2026-05-08 18:59 40.55895 -74.77598 4007 ft 282 kts 43°
2026-05-08 19:00 40.57224 -74.75713 4009 ft 281 kts 43°
2026-05-08 19:00 40.58572 -74.73804 4007 ft 285 kts 43°
2026-05-08 19:00 40.59919 -74.71897 4010 ft 283 kts 43°
2026-05-08 19:00 40.61261 -74.70002 4004 ft 282 kts 43°
2026-05-08 19:01 40.62599 -74.68111 3997 ft 283 kts 43°
2026-05-08 19:01 40.63923 -74.66239 3995 ft 282 kts 43°
2026-05-08 19:01 40.65260 -74.64345 3994 ft 283 kts 44°
2026-05-08 19:01 40.66599 -74.62447 3994 ft 283 kts 43°
2026-05-08 19:02 40.67937 -74.60549 3995 ft 283 kts 43°
2026-05-08 19:02 40.69279 -74.58645 3992 ft 283 kts 43°
2026-05-08 19:02 40.70623 -74.56739 3998 ft 283 kts 43°
2026-05-08 19:02 40.71963 -74.54833 3999 ft 282 kts 43°
2026-05-08 19:03 40.73299 -74.52933 4007 ft 283 kts 43°
2026-05-08 19:03 40.74635 -74.51032 4000 ft 284 kts 43°
2026-05-08 19:03 40.75984 -74.49115 4003 ft 284 kts 43°
2026-05-08 19:03 40.77323 -74.47207 4000 ft 284 kts 43°
2026-05-08 19:04 40.78668 -74.45291 4020 ft 285 kts 43°
2026-05-08 19:04 40.80010 -74.43374 4009 ft 284 kts 43°
2026-05-08 19:04 40.81363 -74.41445 4021 ft 286 kts 43°
2026-05-08 19:04 40.82709 -74.39521 4020 ft 284 kts 43°
2026-05-08 19:05 40.84045 -74.37590 4018 ft 285 kts 43°
2026-05-08 19:05 40.85378 -74.35658 4005 ft 284 kts 43°
2026-05-08 19:05 40.86706 -74.33722 4006 ft 283 kts 44°
2026-05-08 19:05 40.88022 -74.31795 4007 ft 283 kts 44°
2026-05-08 19:06 40.89347 -74.29866 4011 ft 284 kts 43°
2026-05-08 19:06 40.90651 -74.27959 4018 ft 281 kts 43°
2026-05-08 19:06 40.91959 -74.26042 4007 ft 280 kts 44°
2026-05-08 19:06 40.93263 -74.24122 4008 ft 280 kts 43°
2026-05-08 19:07 40.94572 -74.22197 4005 ft 282 kts 44°
2026-05-08 19:07 40.95876 -74.20276 3982 ft 281 kts 44°
2026-05-08 19:07 40.97204 -74.18334 3665 ft 287 kts 43°
2026-05-08 19:07 40.98551 -74.16373 3363 ft 287 kts 43°
2026-05-08 19:08 40.99878 -74.14425 3041 ft 281 kts 43°
2026-05-08 19:08 41.01156 -74.12531 2987 ft 270 kts 44°
2026-05-08 19:08 41.02403 -74.10682 2985 ft 272 kts 43°
2026-05-08 19:08 41.03655 -74.08818 3001 ft 276 kts 44°
2026-05-08 19:09 41.04932 -74.06930 2999 ft 275 kts 43°
2026-05-08 19:09 41.06220 -74.05016 2999 ft 275 kts 44°
2026-05-08 19:09 41.07359 -74.03004 2930 ft 284 kts 61°
2026-05-08 19:09 41.07669 -74.00439 2967 ft 283 kts 90°
2026-05-08 19:10 41.07207 -73.97959 2951 ft 272 kts 119°
2026-05-08 19:10 41.06066 -73.96124 2975 ft 250 kts 145°
2026-05-08 19:10 41.04553 -73.95099 2979 ft 242 kts 169°
2026-05-08 19:10 41.02895 -73.94600 2868 ft 249 kts 173°
2026-05-08 19:11 41.01182 -73.94097 2560 ft 254 kts 172°
2026-05-08 19:11 40.99464 -73.93609 2215 ft 249 kts 175°
2026-05-08 19:11 40.97818 -73.93778 1900 ft 226 kts 203°
2026-05-08 19:11 40.96513 -73.94643 1994 ft 199 kts 217°
2026-05-08 19:12 40.95293 -73.95638 2005 ft 204 kts 217°
2026-05-08 19:12 40.94145 -73.96542 1993 ft 178 kts 218°
2026-05-08 19:12 40.93133 -73.97350 1846 ft 169 kts 219°
2026-05-08 19:12 40.92152 -73.98147 1723 ft 160 kts 218°
2026-05-08 19:13 40.91322 -73.98971 1515 ft 138 kts 228°
2026-05-08 19:13 40.90638 -73.99746 1300 ft 123 kts 226°
2026-05-08 19:13 40.89949 -74.00358 1106 ft 115 kts 220°
2026-05-08 19:13 40.89301 -74.00919 1006 ft 114 kts 224°
2026-05-08 19:14 40.88650 -74.01538 843 ft 115 kts 226°
2026-05-08 19:14 40.88003 -74.02191 697 ft 118 kts 225°
2026-05-08 19:14 40.87404 -74.02908 587 ft 117 kts 235°
2026-05-08 19:14 40.86879 -74.03751 419 ft 120 kts 236°
2026-05-08 19:15 40.86332 -74.04608 290 ft 127 kts 232°
2026-05-08 19:15 40.85728 -74.05478 50 ft 128 kts 232°
2026-05-08 19:15 40.85211 -74.06245 15 ft 80 kts 226°
2026-05-08 19:15 40.84980 -74.06580 17 ft 24 kts 228°
2026-05-08 19:16 40.84875 -74.06736 17 ft 22 kts 229°
2026-05-08 19:16 40.84781 -74.06876 17 ft 20 kts 228°
2026-05-08 19:16 40.84713 -74.06976 17 ft 12 kts 228°
2026-05-08 19:16 40.84652 -74.06990 17 ft 9 kts 140°
2026-05-08 19:17 40.84617 -74.06948 17 ft 6 kts 137°
2026-05-08 19:17 40.84607 -74.06922 17 ft 3 kts 94°
2026-05-08 19:17 40.84616 -74.06900 17 ft 3 kts 48°
2026-05-08 19:17 40.84629 -74.06881 17 ft 3 kts 46°
2026-05-08 19:18 40.84644 -74.06861 17 ft 4 kts 46°
2026-05-08 19:18 40.84680 -74.06809 17 ft 11 kts 48°
2026-05-08 19:18 40.84720 -74.06749 17 ft 8 kts 49°
2026-05-08 19:18 40.84708 -74.06710 17 ft 7 kts 141°
2026-05-08 19:19 40.84667 -74.06661 17 ft 6 kts 143°
2026-05-08 19:19 40.84637 -74.06679 17 ft 5 kts 228°
2026-05-08 19:19 40.84636 -74.06681 17 ft 0 kts 229°